Temperature
14 14 14 14 14 14 14 14 13 13 12 12 12 12 12 12 12 12 12 12 12 12 12 12 12 11 11 11 11 11 11 11 10 10 10 10 10 10
14 14 14 14 14 14 14 14 14 13 13 12 13 12 12 12 12 12 12 12 12 12 12 12 11 11 11 11 11 11 11 11 10 10 10 10 10 10
14 14 14 13 13 13 13 13 13 13 13 13 12 12 12 12 12 12 12 12 12 11 12 11 11 11 11 11 11 11 11 11 10 10 10 10 10 10
13 13 13 13 13 13 13 13 13 13 13 13 12 12 12 12 11 11 11 11 11 11 11 11 11 11 11 11 11 11 10 10 10 10 10 10 10 9
13 13 13 13 13 13 13 13 13 13 13 12 12 12 12 11 11 11 11 11 11 11 11 11 11 11 11 10 10 10 10 10 10 10 10 10 9 9
13 13 13 13 13 13 13 13 13 12 12 12 12 12 11 11 11 11 11 11 10 11 11 10 10 10 10 10 10 10 10 10 10 10 10 9 9 9
13 13 13 13 13 13 13 13 12 12 12 12 11 11 11 11 11 11 11 10 10 10 10 10 10 10 10 10 10 10 10 10 9 9 9 9 9 9
13 13 12 13 12 12 12 12 12 12 12 11 11 11 11 11 11 11 10 10 10 10 10 10 10 10 10 10 10 9 9 9 9 9 9 9 9 8
13 12 12 12 12 12 12 12 12 12 12 11 11 11 11 11 10 10 10 10 10 10 9 9 9 9 9 9 9 9 9 9 9 9 9 8 8 8
12 12 12 12 12 12 12 12 12 12 11 11 11 11 11 10 10 10 10 10 9 9 9 9 9 9 9 9 9 9 9 8 8 8 8 8 8 8
12 12 12 12 12 12 12 12 12 11 11 11 11 10 10 10 10 10 10 9 9 9 9 9 9 9 9 9 8 8 8 8 8 8 8 8 8 7
12 12 12 12 12 12 12 11 11 11 11 11 10 10 10 10 10 9 9 9 9 9 9 8 8 8 8 8 8 8 8 8 8 8 8 7 7 7
12 12 12 12 12 11 11 11 11 11 10 10 10 10 10 10 9 9 9 9 9 9 9 8 8 8 8 8 8 8 7 7 8 8 7 7 7 7
12 12 12 12 11 11 11 11 11 10 10 10 10 10 9 9 9 9 9 9 9 9 8 8 8 8 7 7 7 7 7 7 7 7 7 7 7 6
11 11 11 11 11 11 10 10 10 10 10 10 10 9 9 9 9 8 8 8 8 8 8 8 7 7 7 7 7 7 7 7 7 7 7 7 7 6
11 11 11 10 10 10 10 10 10 10 10 10 9 9 9 8 8 8 8 8 8 8 8 7 7 7 7 7 7 7 7 6 6 6 6 6 6 6
11 10 10 10 10 10 10 10 10 9 9 9 9 9 8 8 8 8 8 7 7 7 7 7 7 7 7 6 6 6 6 6 6 6 6 6 6 6
10 10 10 9 9 9 9 9 9 9 9 9 8 8 8 8 8 8 7 7 7 7 7 7 6 6 6 6 6 6 6 6 6 6 5 5 5 6
10 9 9 9 9 9 9 9 9 9 8 8 8 8 8 8 7 7 7 7 6 6 6 6 6 6 5 5 6 6 5 5 5 5 5 5 5 5
9 9 9 9 9 9 8 8 8 8 8 8 8 8 7 7 7 7 7 6 6 6 6 6 5 5 5 5 5 5 5 5 5 5 5 4 4 4
9 9 9 9 8 8 8 8 8 8 8 7 7 7 7 7 6 6 6 6 6 5 5 6 5 5 4 4 4 4 5 4 4 4 4 4 4 4
8 8 8 8 8 8 8 7 7 7 7 7 7 7 6 6 6 6 6 5 5 5 5 5 5 4 4 4 4 4 4 4 4 3 3 3 3 3
8 8 8 8 8 7 7 7 7 7 7 7 6 6 6 6 6 5 5 5 5 5 4 4 4 4 4 3 3 3 3 3 3 3 3 3 3 3
Wind_Speed
1 1 1 1 1 1 1 2 2 1 1 1 1 2 6 7 8 7 6 5 5 5 5 5 5 5 5 5 5 5 5 5 5 5 6 6 6 6
1 1 1 1 1 0 0 1 1 2 2 1 1 2 5 6 7 7 7 5 5 5 4 4 4 4 4 4 3 3 3 3 4 4 4 4 4 4
1 2 1 1 1 0 0 0 1 2 2 0 1 2 3 3 4 6 6 6 5 5 4 4 4 3 3 2 2 2 2 2 2 2 3 3 3 4
1 2 1 1 1 0 0 0 1 1 2 2 1 1 1 2 4 4 4 5 6 5 5 4 4 3 2 2 2 2 1 1 1 0 1 2 2 2
1 2 2 2 1 1 1 0 0 1 2 2 2 1 1 1 1 2 3 3 4 5 5 5 5 5 4 3 3 3 2 2 2 1 1 1 2 2
1 1 1 2 2 2 1 1 1 1 2 2 2 1 1 1 1 1 1 1 2 3 4 5 6 6 5 5 5 4 4 4 3 3 2 2 3 3
1 1 2 3 3 2 1 1 1 1 1 1 2 1 2 2 2 2 2 2 2 2 2 3 4 5 6 6 6 6 5 5 5 4 4 4 4 4
1 2 2 3 3 3 3 2 2 2 2 2 1 2 3 2 2 2 2 2 2 2 2 2 3 3 5 6 7 8 7 6 6 6 5 5 5 5
2 2 1 2 2 1 2 3 2 1 1 2 2 3 3 3 2 3 3 3 3 3 1 3 2 3 4 5 8 9 9 8 7 7 6 6 6 6
2 2 3 2 1 1 1 1 1 1 1 1 1 2 1 1 3 3 3 2 2 1 2 3 3 3 3 5 8 10 9 9 8 7 7 7 7 7
1 2 3 3 2 2 2 1 1 0 1 1 1 1 1 2 2 1 1 1 2 3 1 2 2 2 2 3 7 9 9 9 8 8 8 7 7 7
2 2 3 3 3 3 3 2 2 2 1 0 0 1 1 2 2 3 3 3 2 3 3 2 2 1 2 2 3 5 6 8 9 9 9 8 7 5
2 2 2 4 4 4 3 3 4 2 1 1 1 1 1 1 2 3 3 3 3 3 3 2 2 2 2 3 2 3 4 4 6 7 7 8 8 6
2 2 2 3 3 3 3 3 3 1 1 1 1 1 2 2 2 2 3 3 4 4 4 2 2 3 2 3 3 2 2 4 4 4 4 6 7 8
3 3 4 4 4 3 4 4 3 2 2 2 2 2 2 3 2 1 1 1 2 3 4 4 2 2 3 4 3 3 2 3 3 3 4 4 5 4
3 3 3 4 4 3 2 3 3 3 3 3 3 2 2 1 1 1 1 1 1 3 3 3 2 2 3 4 3 4 3 3 2 3 3 4 4 5
2 2 2 2 2 2 2 3 3 2 3 3 2 2 2 1 1 1 1 1 2 3 3 2 2 2 3 3 3 4 4 3 4 3 3 3 4 5
3 3 4 4 5 4 4 3 3 4 4 3 3 3 3 3 2 2 2 2 3 3 3 3 2 1 2 3 4 4 4 5 4 4 3 4 5 5
4 4 4 4 4 4 4 4 4 4 4 4 3 3 3 3 3 3 3 3 3 3 3 2 2 2 3 5 4 5 5 4 3 3 4 4 5 5
4 4 4 4 4 4 4 4 4 3 3 4 3 3 3 3 3 3 3 3 4 3 3 3 3 4 5 5 4 4 6 5 4 4 4 3 3 4
5 5 4 4 4 4 4 4 4 4 4 4 4 4 4 3 4 4 4 5 4 3 4 4 5 5 3 2 3 4 3 6 6 4 3 2 3 2
4 5 5 5 5 5 5 4 4 4 5 4 4 4 4 4 4 5 4 4 4 4 4 3 3 2 2 3 5 5 4 3 4 6 5 4 3 3
5 5 5 5 5 4 4 5 5 5 5 5 4 4 4 4 4 4 5 5 4 4 4 3 2 2 3 4 4 4 5 3 2 2 4 7 8 7
Wind_Direction
72 71 86 61 60 29 60 132 157 180 200 194 146 149 134 129 136 132 125 121 117 111 100 91 86 86 84 82 79 75 72 68 69 64 61 60 57 55
112 83 60 76 69 61 9 354 90 158 174 183 178 151 140 135 144 141 140 135 136 132 125 115 108 102 94 89 88 80 72 67 67 65 58 53 44 40
169 146 157 140 121 55 50 34 48 99 131 159 124 119 117 131 139 148 151 142 146 150 151 149 142 135 127 117 109 96 85 80 75 61 49 42 36 34
161 147 158 123 113 110 12 121 140 130 140 160 187 160 143 151 154 160 159 162 161 165 169 173 171 165 163 167 166 146 130 126 121 58 26 17 12 10
171 173 174 157 166 169 159 162 163 122 136 157 190 200 189 156 156 181 171 172 183 182 185 190 194 195 196 197 199 197 194 196 209 228 249 293 313 307
189 160 168 166 171 175 169 217 134 122 133 146 173 201 203 203 171 205 220 216 213 187 194 199 204 206 209 214 216 216 218 219 224 235 246 256 268 275
118 96 77 67 67 75 128 196 143 145 152 169 189 209 209 188 210 213 213 234 235 190 193 200 197 205 215 224 226 223 227 229 230 237 244 247 254 263
158 126 119 90 76 65 64 76 132 175 202 196 213 211 228 221 209 206 205 217 258 231 180 221 191 208 212 208 215 216 221 226 232 234 238 244 248 254
169 153 134 106 96 102 84 68 62 104 186 193 212 229 227 221 208 229 228 217 225 224 172 243 225 220 216 210 214 217 220 225 232 237 238 244 248 249
174 173 161 151 157 115 138 108 44 18 228 204 205 237 234 231 216 220 220 233 245 238 162 230 245 237 240 217 215 214 217 225 234 240 245 245 250 253
208 170 158 161 180 141 138 164 174 296 61 132 172 201 234 239 200 153 189 195 260 259 222 205 245 256 247 230 219 217 223 227 230 240 248 248 250 254
228 209 182 178 184 176 181 187 202 228 207 235 262 254 234 245 230 198 199 212 235 250 233 197 234 233 277 253 210 219 227 232 236 244 245 244 242 245
223 229 211 190 199 210 205 204 217 211 192 184 196 217 243 258 253 221 205 207 216 235 225 186 234 228 227 264 254 219 215 237 243 249 244 240 234 225
223 221 209 197 208 216 217 223 209 183 182 182 194 221 232 245 255 228 212 212 220 222 217 196 216 223 229 254 263 253 237 239 224 229 236 243 237 232
239 225 213 211 213 216 225 219 199 191 189 208 227 235 233 228 217 213 220 232 262 244 232 231 222 224 215 232 243 244 260 254 217 219 224 226 227 229
253 238 216 206 208 215 218 221 216 206 199 216 231 240 235 232 233 216 229 252 272 277 267 258 242 232 244 250 238 250 244 230 237 229 225 224 230 227
215 207 198 199 208 210 213 222 225 218 223 233 233 241 240 241 250 232 217 229 248 261 271 274 249 242 249 243 240 246 246 252 237 226 228 241 236 227
193 213 215 215 215 215 216 218 219 218 219 222 225 225 224 225 238 245 230 229 244 257 261 258 252 299 324 292 243 246 251 251 247 228 222 236 247 239
209 224 221 220 219 220 222 219 224 227 222 218 222 225 225 226 231 238 239 246 251 254 261 257 226 206 250 272 272 239 241 256 250 240 230 233 244 242
226 227 224 224 224 224 228 229 226 227 227 227 225 224 222 224 231 236 239 247 256 259 261 259 235 223 227 245 258 270 241 232 238 247 251 250 252 256
232 231 226 225 227 227 229 230 225 224 226 227 226 226 227 229 235 238 239 249 253 253 250 255 260 249 242 248 271 274 265 236 232 236 232 239 256 249
238 234 234 231 229 226 224 225 229 231 228 225 227 226 226 229 236 240 241 244 248 249 254 264 279 264 239 248 261 267 272 269 248 256 246 234 213 233
240 236 233 231 232 228 226 227 226 228 229 226 222 225 227 232 238 240 245 244 247 250 250 256 265 253 248 249 258 269 271 272 264 258 263 261 259 266
Height
1549 1549 1550 1550 1550 1550 1551 1551 1552 1551 1551 1551 1551 1551 1550 1550 1549 1549 1548 1548 1547 1546 1546 1545 1544 1544 1544 1543 1543 1543 1543 1543 1542 1542 1542 1541 1541 1540
1548 1548 1548 1548 1548 1549 1549 1550 1550 1550 1549 1549 1550 1550 1550 1549 1549 1548 1548 1547 1547 1546 1546 1545 1544 1544 1543 1543 1543 1542 1542 1542 1542 1542 1541 1541 1540 1540
1547 1547 1547 1547 1547 1548 1548 1548 1548 1548 1547 1548 1548 1549 1549 1548 1548 1547 1547 1546 1546 1546 1545 1545 1544 1543 1543 1542 1542 1541 1541 1541 1541 1541 1540 1540 1539 1539
1545 1545 1546 1546 1546 1546 1546 1546 1546 1546 1546 1546 1546 1547 1547 1547 1546 1546 1546 1545 1544 1544 1544 1543 1543 1542 1542 1541 1541 1540 1540 1540 1539 1539 1539 1538 1538 1537
1544 1544 1544 1544 1544 1544 1544 1544 1544 1544 1544 1544 1544 1544 1545 1545 1544 1544 1544 1543 1543 1542 1542 1542 1542 1541 1540 1540 1539 1539 1538 1538 1538 1537 1537 1536 1536 1535
1542 1542 1542 1542 1542 1542 1542 1542 1542 1542 1542 1542 1542 1542 1542 1542 1542 1542 1541 1541 1541 1541 1540 1540 1539 1539 1538 1538 1537 1537 1536 1536 1536 1535 1535 1534 1534 1533
1540 1540 1540 1540 1540 1540 1540 1540 1540 1540 1539 1539 1539 1539 1539 1539 1539 1539 1539 1539 1538 1538 1538 1538 1537 1536 1536 1536 1535 1535 1534 1534 1533 1533 1532 1532 1531 1530
1537 1537 1538 1538 1537 1537 1537 1537 1537 1537 1537 1537 1536 1536 1536 1536 1537 1536 1536 1536 1535 1536 1535 1535 1535 1534 1533 1533 1533 1532 1532 1531 1530 1530 1529 1528 1528 1527
1535 1535 1535 1535 1535 1535 1534 1534 1534 1534 1534 1534 1533 1533 1533 1533 1534 1533 1533 1533 1532 1532 1533 1531 1531 1531 1530 1530 1530 1529 1529 1528 1527 1527 1526 1525 1524 1524
1532 1532 1532 1532 1532 1532 1531 1531 1531 1530 1530 1530 1531 1531 1531 1531 1531 1531 1530 1530 1529 1529 1529 1528 1528 1527 1527 1526 1526 1526 1525 1525 1524 1523 1522 1522 1521 1520
1529 1529 1529 1529 1529 1529 1528 1528 1527 1527 1527 1527 1528 1527 1528 1527 1527 1527 1527 1526 1525 1525 1525 1525 1524 1523 1523 1522 1522 1522 1522 1521 1520 1519 1519 1518 1517 1517
1525 1525 1526 1526 1525 1525 1525 1525 1524 1524 1524 1524 1524 1524 1524 1524 1524 1524 1523 1522 1521 1521 1521 1521 1520 1520 1518 1518 1518 1518 1518 1517 1516 1516 1515 1514 1513 1512
1521 1521 1522 1522 1522 1522 1522 1522 1521 1521 1521 1521 1520 1520 1520 1520 1520 1520 1519 1519 1518 1517 1518 1517 1516 1516 1515 1514 1514 1514 1513 1513 1512 1511 1510 1509 1509 1508
1517 1518 1518 1518 1518 1518 1518 1518 1518 1518 1518 1517 1517 1517 1516 1516 1516 1516 1516 1515 1515 1514 1514 1513 1512 1511 1511 1510 1509 1509 1509 1508 1507 1506 1506 1505 1504 1504
1514 1514 1514 1514 1514 1514 1514 1515 1515 1514 1514 1514 1513 1513 1513 1513 1513 1512 1512 1511 1511 1510 1510 1509 1508 1507 1507 1505 1505 1504 1503 1503 1503 1502 1501 1500 1499 1499
1510 1510 1510 1510 1510 1510 1510 1511 1510 1510 1510 1510 1510 1510 1510 1509 1509 1508 1508 1507 1506 1505 1505 1504 1503 1503 1501 1501 1500 1499 1499 1499 1498 1497 1497 1496 1495 1495
1505 1505 1505 1505 1505 1505 1506 1506 1506 1506 1506 1506 1506 1506 1505 1505 1505 1505 1504 1503 1502 1501 1500 1499 1499 1498 1497 1496 1495 1494 1494 1494 1493 1493 1492 1490 1490 1490
1501 1500 1500 1500 1500 1501 1501 1501 1502 1502 1502 1502 1502 1502 1501 1501 1500 1500 1500 1499 1498 1497 1496 1495 1494 1493 1492 1491 1491 1490 1489 1489 1488 1487 1487 1486 1484 1485
1496 1496 1496 1496 1496 1496 1496 1496 1497 1497 1497 1497 1497 1497 1497 1496 1496 1495 1495 1494 1493 1492 1492 1491 1490 1488 1487 1485 1485 1486 1485 1483 1483 1482 1481 1480 1479 1479
1491 1491 1490 1490 1491 1491 1491 1491 1491 1492 1492 1492 1492 1492 1492 1491 1491 1490 1490 1489 1488 1487 1486 1486 1485 1484 1483 1482 1481 1480 1480 1479 1478 1477 1476 1475 1475 1475
1485 1485 1485 1485 1485 1485 1485 1485 1486 1486 1486 1486 1486 1486 1486 1486 1485 1485 1485 1484 1484 1483 1481 1480 1480 1481 1479 1478 1476 1474 1474 1474 1473 1472 1471 1470 1469 1468
1480 1480 1480 1480 1480 1480 1480 1480 1480 1480 1480 1480 1480 1480 1480 1480 1480 1480 1479 1479 1478 1478 1477 1476 1476 1475 1474 1473 1471 1469 1468 1468 1468 1467 1467 1466 1465 1463
1475 1474 1474 1474 1474 1474 1474 1474 1474 1474 1474 1473 1474 1474 1474 1474 1474 1474 1474 1473 1473 1472 1471 1471 1470 1469 1468 1467 1466 1465 1464 1463 1462 1461 1461 1461 1461 1460